| time (UTC) | temp F | wind direction | speed MPH | gust MPH | rain 1hr in | rain 24hr in | rain mn in | humidity % | barometer mb |
| 20260509145017 | 60 | 88 | 2.0 | 5.0 | 0.00 | 0.00 | 0.00 | 36 | 1019.4 |
| 20260509144529 | 59 | 105 | 1.0 | 6.0 | 0.00 | 0.00 | 0.00 | 36 | 1019.5 |
| 20260509144012 | 59 | 111 | 4.0 | 6.0 | 0.00 | 0.00 | 0.00 | 37 | 1019.4 |
| 20260509143514 | 58 | 96 | 4.0 | 7.0 | 0.00 | 0.00 | 0.00 | 39 | 1019.4 |
| 20260509143031 | 57 | 103 | 4.0 | 7.0 | 0.00 | 0.00 | 0.00 | 39 | 1019.4 |
| 20260509142512 | 56 | 96 | 4.0 | 7.0 | 0.00 | 0.00 | 0.00 | 40 | 1019.5 |
| 20260509142012 | 56 | 101 | 5.0 | 8.0 | 0.00 | 0.00 | 0.00 | 41 | 1019.5 |
| 20260509141534 | 55 | 97 | 5.0 | 8.0 | 0.00 | 0.00 | 0.00 | 40 | 1019.4 |
| 20260509141013 | 55 | 95 | 6.0 | 9.0 | 0.00 | 0.00 | 0.00 | 42 | 1019.4 |
| 20260509140513 | 54 | 79 | 6.0 | 10.0 | 0.00 | 0.00 | 0.00 | 42 | 1019.4 |
| 20260509140032 | 54 | 109 | 7.0 | 11.0 | 0.00 | 0.00 | 0.00 | 42 | 1019.2 |
| 20260509135512 | 53 | 101 | 7.0 | 12.0 | 0.00 | 0.00 | 0.00 | 43 | 1019.3 |
| 20260509135013 | 52 | 105 | 7.0 | 12.0 | 0.00 | 0.00 | 0.00 | 44 | 1019.2 |
| 20260509134541 | 51 | 98 | 9.0 | 12.0 | 0.00 | 0.00 | 0.00 | 45 | 1019.2 |
| 20260509134012 | 51 | 96 | 6.0 | 10.0 | 0.00 | 0.00 | 0.00 | 46 | 1019.2 |
| 20260509133512 | 50 | 88 | 7.0 | 10.0 | 0.00 | 0.00 | 0.00 | 47 | 1019.2 |
| 20260509133031 | 49 | 93 | 7.0 | 9.0 | 0.00 | 0.00 | 0.00 | 48 | 1019.3 |
| 20260509132514 | 48 | 82 | 7.0 | 9.0 | 0.00 | 0.00 | 0.00 | 50 | 1019.2 |
| 20260509132017 | 47 | 94 | 6.0 | 10.0 | 0.00 | 0.00 | 0.00 | 51 | 1019.3 |
| 20260509131534 | 46 | 91 | 7.0 | 10.0 | 0.00 | 0.00 | 0.00 | 52 | 1019.2 |
| 20260509131017 | 45 | 93 | 6.0 | 9.0 | 0.00 | 0.00 | 0.00 | 54 | 1019.3 |
| 20260509130519 | 45 | 103 | 5.0 | 7.0 | 0.00 | 0.00 | 0.00 | 56 | 1019.2 |
| 20260509130030 | 43 | 98 | 5.0 | 7.0 | 0.00 | 0.00 | 0.00 | 57 | 1019.2 |
| 20260509125513 | 42 | 110 | 5.0 | 6.0 | 0.00 | 0.00 | 0.00 | 60 | 1019.2 |
| 20260509125016 | 41 | 101 | 4.0 | 8.0 | 0.00 | 0.00 | 0.00 | 61 | 1019.2 |
| 20260509124531 | 41 | 94 | 4.0 | 8.0 | 0.00 | 0.00 | 0.00 | 60 | 1019.0 |
| 20260509124013 | 41 | 118 | 5.0 | 7.0 | 0.00 | 0.00 | 0.00 | 59 | 1018.8 |
| 20260509123515 | 40 | 126 | 5.0 | 7.0 | 0.00 | 0.00 | 0.00 | 60 | 1018.9 |
| 20260509123034 | 39 | 111 | 4.0 | 8.0 | 0.00 | 0.00 | 0.00 | 62 | 1018.7 |
| 20260509122512 | 39 | 110 | 5.0 | 8.0 | 0.00 | 0.00 | 0.00 | 63 | 1018.6 |
| 20260509122014 | 38 | 105 | 4.0 | 8.0 | 0.00 | 0.00 | 0.00 | 64 | 1018.5 |
| 20260509121538 | 39 | 117 | 5.0 | 8.0 | 0.00 | 0.00 | 0.00 | 62 | 1018.4 |
| 20260509121013 | 39 | 127 | 5.0 | 8.0 | 0.00 | 0.00 | 0.00 | 62 | 1018.3 |
| 20260509120511 | 39 | 109 | 4.0 | 7.0 | 0.00 | 0.00 | 0.00 | 62 | 1018.3 |
| 20260509120034 | 39 | 113 | 5.0 | 7.0 | 0.00 | 0.00 | 0.00 | 61 | 1018.1 |
| 20260509115513 | 39 | 111 | 4.0 | 7.0 | 0.00 | 0.00 | 0.00 | 61 | 1018.1 |
| 20260509115014 | 40 | 107 | 5.0 | 7.0 | 0.00 | 0.00 | 0.00 | 60 | 1018.0 |
| 20260509114533 | 40 | 107 | 5.0 | 6.0 | 0.00 | 0.00 | 0.00 | 60 | 1018.0 |
| 20260509114013 | 40 | 110 | 4.0 | 6.0 | 0.00 | 0.00 | 0.00 | 60 | 1017.9 |
| 20260509113512 | 40 | 102 | 4.0 | 6.0 | 0.00 | 0.00 | 0.00 | 60 | 1018.0 |
| 20260509113034 | 40 | 125 | 4.0 | 6.0 | 0.00 | 0.00 | 0.00 | 61 | 1017.9 |
| 20260509112513 | 40 | 110 | 4.0 | 7.0 | 0.00 | 0.00 | 0.00 | 60 | 1017.9 |
| 20260509112012 | 41 | 109 | 5.0 | 8.0 | 0.00 | 0.00 | 0.00 | 59 | 1017.9 |
| 20260509111531 | 41 | 112 | 5.0 | 10.0 | 0.00 | 0.00 | 0.00 | 58 | 1017.9 |
| 20260509111014 | 42 | 110 | 5.0 | 10.0 | 0.00 | 0.00 | 0.00 | 58 | 1017.8 |
| 20260509110514 | 41 | 108 | 6.0 | 10.0 | 0.00 | 0.00 | 0.00 | 59 | 1017.9 |
| 20260509110033 | 41 | 85 | 5.0 | 8.0 | 0.00 | 0.00 | 0.00 | 60 | 1017.8 |
| 20260509105516 | 41 | 110 | 5.0 | 8.0 | 0.00 | 0.00 | 0.00 | 59 | 1017.9 |
| 20260509105014 | 40 | 93 | 6.0 | 8.0 | 0.00 | 0.00 | 0.00 | 61 | 1018.0 |
| 20260509104535 | 40 | 94 | 6.0 | 8.0 | 0.00 | 0.00 | 0.00 | 61 | 1018.0 |
| 20260509104011 | 39 | 80 | 5.0 | 8.0 | 0.00 | 0.00 | 0.00 | 63 | 1018.0 |
| 20260509103511 | 38 | 108 | 6.0 | 8.0 | 0.00 | 0.00 | 0.00 | 64 | 1017.9 |
| 20260509103035 | 39 | 91 | 4.0 | 7.0 | 0.00 | 0.00 | 0.00 | 62 | 1018.0 |
| 20260509102514 | 39 | 115 | 5.0 | 6.0 | 0.00 | 0.00 | 0.00 | 61 | 1018.0 |
| 20260509102015 | 40 | 120 | 4.0 | 6.0 | 0.00 | 0.00 | 0.00 | 59 | 1017.9 |
| 20260509101530 | 41 | 124 | 4.0 | 6.0 | 0.00 | 0.00 | 0.00 | 59 | 1018.0 |
| 20260509101012 | 40 | 95 | 5.0 | 6.0 | 0.00 | 0.00 | 0.00 | 60 | 1017.8 |
| 20260509100514 | 40 | 91 | 4.0 | 5.0 | 0.00 | 0.00 | 0.00 | 60 | 1017.9 |
| 20260509100032 | 40 | 100 | 4.0 | 6.0 | 0.00 | 0.00 | 0.00 | 59 | 1017.9 |
| 20260509095515 | 42 | 104 | 5.0 | 6.0 | 0.00 | 0.00 | 0.00 | 56 | 1017.9 |
| 20260509095012 | 42 | 100 | 4.0 | 7.0 | 0.00 | 0.00 | 0.00 | 57 | 1018.0 |
| 20260509094530 | 42 | 100 | 4.0 | 7.0 | 0.00 | 0.00 | 0.00 | 55 | 1017.9 |
| 20260509094010 | 43 | 102 | 4.0 | 6.0 | 0.00 | 0.00 | 0.00 | 54 | 1017.9 |
| 20260509093517 | 43 | 101 | 4.0 | 5.0 | 0.00 | 0.00 | 0.00 | 55 | 1017.9 |
| 20260509093030 | 42 | 96 | 4.0 | 6.0 | 0.00 | 0.00 | 0.00 | 56 | 1017.9 |
| 20260509092514 | 41 | 87 | 4.0 | 6.0 | 0.00 | 0.00 | 0.00 | 58 | 1017.8 |
| 20260509092011 | 41 | 84 | 4.0 | 7.0 | 0.00 | 0.00 | 0.00 | 59 | 1017.7 |
| 20260509091534 | 41 | 91 | 4.0 | 7.0 | 0.00 | 0.00 | 0.00 | 59 | 1017.7 |
| 20260509091014 | 41 | 88 | 4.0 | 7.0 | 0.00 | 0.00 | 0.00 | 59 | 1017.7 |
| 20260509090514 | 41 | 114 | 4.0 | 7.0 | 0.00 | 0.00 | 0.00 | 59 | 1017.7 |
| 20260509090032 | 41 | 92 | 4.0 | 9.0 | 0.00 | 0.00 | 0.00 | 59 | 1017.7 |
| 20260509085510 | 41 | 108 | 6.0 | 9.0 | 0.00 | 0.00 | 0.00 | 59 | 1017.7 |
| 20260509085016 | 41 | 120 | 6.0 | 9.0 | 0.00 | 0.00 | 0.00 | 59 | 1017.7 |
| 20260509084532 | 41 | 116 | 4.0 | 6.0 | 0.00 | 0.00 | 0.00 | 59 | 1017.7 |
| 20260509084014 | 42 | 103 | 4.0 | 7.0 | 0.00 | 0.00 | 0.00 | 58 | 1017.7 |
| 20260509083516 | 41 | 134 | 3.0 | 7.0 | 0.00 | 0.00 | 0.00 | 58 | 1017.7 |
| 20260509083032 | 41 | 93 | 4.0 | 7.0 | 0.00 | 0.00 | 0.00 | 58 | 1017.6 |
| 20260509082511 | 42 | 105 | 4.0 | 6.0 | 0.00 | 0.00 | 0.00 | 58 | 1017.6 |
| 20260509082012 | 41 | 96 | 4.0 | 5.0 | 0.00 | 0.00 | 0.00 | 59 | 1017.7 |
| 20260509081530 | 41 | 94 | 4.0 | 7.0 | 0.00 | 0.00 | 0.00 | 59 | 1017.7 |
| 20260509081012 | 42 | 96 | 4.0 | 7.0 | 0.00 | 0.00 | 0.00 | 58 | 1017.7 |
| 20260509080510 | 42 | 104 | 5.0 | 6.0 | 0.00 | 0.00 | 0.00 | 56 | 1017.7 |
| 20260509080050 | 43 | 98 | 4.0 | 5.0 | 0.00 | 0.00 | 0.00 | 56 | 1017.7 |
| 20260509075510 | 42 | 102 | 3.0 | 6.0 | 0.00 | 0.00 | 0.00 | 57 | 1017.7 |
| 20260509075015 | 42 | 102 | 4.0 | 6.0 | 0.00 | 0.00 | 0.00 | 57 | 1017.7 |
| 20260509074530 | 42 | 100 | 4.0 | 6.0 | 0.00 | 0.00 | 0.00 | 57 | 1017.7 |
| 20260509074013 | 42 | 94 | 3.0 | 6.0 | 0.00 | 0.00 | 0.00 | 56 | 1017.9 |
| 20260509073511 | 42 | 98 | 3.0 | 5.0 | 0.00 | 0.00 | 0.00 | 57 | 1017.7 |
| 20260509073101 | 42 | 96 | 3.0 | 5.0 | 0.00 | 0.00 | 0.00 | 57 | 1017.8 |
| 20260509072513 | 42 | 96 | 4.0 | 5.0 | 0.00 | 0.00 | 0.00 | 56 | 1017.8 |
| 20260509072014 | 43 | 98 | 3.0 | 5.0 | 0.00 | 0.00 | 0.00 | 56 | 1017.9 |
| 20260509071531 | 42 | 104 | 1.0 | 6.0 | 0.00 | 0.00 | 0.00 | 56 | 1017.9 |
| 20260509071013 | 43 | 94 | 4.0 | 6.0 | 0.00 | 0.00 | 0.00 | 55 | 1017.9 |
| 20260509070512 | 44 | 101 | 4.0 | 6.0 | 0.00 | 0.00 | 0.00 | 54 | 1018.0 |
| 20260509070033 | 44 | 117 | 4.0 | 6.0 | 0.00 | 0.00 | 0.00 | 53 | 1018.0 |
| 20260509065515 | 44 | 98 | 4.0 | 6.0 | 0.00 | 0.00 | 0.00 | 54 | 1017.9 |
| 20260509065013 | 43 | 106 | 4.0 | 7.0 | 0.00 | 0.00 | 0.00 | 54 | 1018.0 |
| 20260509064534 | 45 | 93 | 4.0 | 7.0 | 0.00 | 0.00 | 0.00 | 52 | 1018.0 |
| 20260509064013 | 45 | 113 | 5.0 | 7.0 | 0.00 | 0.00 | 0.00 | 51 | 1018.0 |
| 20260509063514 | 45 | 112 | 4.0 | 6.0 | 0.00 | 0.00 | 0.00 | 51 | 1018.0 |
| 20260509063034 | 44 | 102 | 5.0 | 6.0 | 0.00 | 0.00 | 0.00 | 52 | 1017.9 |
| 20260509062514 | 46 | 99 | 4.0 | 6.0 | 0.00 | 0.00 | 0.00 | 50 | 1018.0 |
| 20260509062016 | 47 | 92 | 2.0 | 5.0 | 0.00 | 0.00 | 0.00 | 47 | 1017.9 |
| 20260509061544 | 47 | 110 | 3.0 | 6.0 | 0.00 | 0.00 | 0.00 | 47 | 1018.0 |
| 20260509061015 | 47 | 96 | 2.0 | 6.0 | 0.00 | 0.00 | 0.00 | 48 | 1018.0 |
| 20260509060513 | 47 | 85 | 4.0 | 7.0 | 0.00 | 0.00 | 0.00 | 47 | 1017.9 |
| 20260509060035 | 47 | 80 | 5.0 | 7.0 | 0.00 | 0.00 | 0.00 | 47 | 1017.9 |
| 20260509055514 | 47 | 86 | 3.0 | 5.0 | 0.00 | 0.00 | 0.00 | 47 | 1017.9 |
| 20260509055015 | 47 | 94 | 2.0 | 7.0 | 0.00 | 0.00 | 0.00 | 48 | 1018.0 |
| 20260509054537 | 47 | 95 | 4.0 | 7.0 | 0.00 | 0.00 | 0.00 | 48 | 1017.9 |
| 20260509054014 | 47 | 89 | 5.0 | 7.0 | 0.00 | 0.00 | 0.00 | 48 | 1017.9 |
| 20260509053515 | 47 | 82 | 5.0 | 7.0 | 0.00 | 0.00 | 0.00 | 49 | 1017.9 |
| 20260509053034 | 46 | 75 | 5.0 | 7.0 | 0.00 | 0.00 | 0.00 | 49 | 1017.8 |
| 20260509052515 | 46 | 86 | 4.0 | 8.0 | 0.00 | 0.00 | 0.00 | 50 | 1017.8 |
| 20260509052014 | 47 | 103 | 6.0 | 8.0 | 0.00 | 0.00 | 0.00 | 49 | 1017.7 |
| 20260509051538 | 48 | 112 | 6.0 | 8.0 | 0.00 | 0.00 | 0.00 | 47 | 1017.9 |
| 20260509051015 | 47 | 98 | 6.0 | 9.0 | 0.00 | 0.00 | 0.00 | 47 | 1017.7 |
| 20260509050518 | 47 | 106 | 6.0 | 9.0 | 0.00 | 0.00 | 0.00 | 48 | 1017.8 |
| 20260509050038 | 47 | 111 | 6.0 | 9.0 | 0.00 | 0.00 | 0.00 | 48 | 1017.8 |
| 20260509045513 | 48 | 127 | 5.0 | 7.0 | 0.00 | 0.00 | 0.00 | 46 | 1017.8 |
| 20260509045014 | 49 | 101 | 4.0 | 6.0 | 0.00 | 0.00 | 0.00 | 44 | 1017.7 |
| 20260509044532 | 48 | 86 | 5.0 | 6.0 | 0.00 | 0.00 | 0.00 | 45 | 1017.7 |
| 20260509044014 | 48 | 89 | 3.0 | 5.0 | 0.00 | 0.00 | 0.00 | 46 | 1017.5 |
| 20260509043513 | 48 | 80 | 3.0 | 5.0 | 0.00 | 0.00 | 0.00 | 45 | 1017.6 |
| 20260509043042 | 48 | 88 | 3.0 | 5.0 | 0.00 | 0.00 | 0.00 | 46 | 1017.5 |
| 20260509042513 | 48 | 105 | 2.0 | 5.0 | 0.00 | 0.00 | 0.00 | 46 | 1017.6 |
| 20260509042017 | 48 | 87 | 3.0 | 6.0 | 0.00 | 0.00 | 0.00 | 46 | 1017.5 |
| 20260509041533 | 49 | 85 | 4.0 | 6.0 | 0.00 | 0.00 | 0.00 | 45 | 1017.5 |
| 20260509041014 | 49 | 93 | 3.0 | 7.0 | 0.00 | 0.00 | 0.00 | 44 | 1017.6 |
| 20260509040515 | 49 | 89 | 3.0 | 7.0 | 0.00 | 0.00 | 0.00 | 44 | 1017.4 |
| 20260509040034 | 50 | 86 | 4.0 | 7.0 | 0.00 | 0.00 | 0.00 | 43 | 1017.4 |
| 20260509035515 | 50 | 80 | 4.0 | 6.0 | 0.00 | 0.00 | 0.00 | 42 | 1017.2 |
| 20260509035014 | 50 | 87 | 5.0 | 6.0 | 0.00 | 0.00 | 0.00 | 42 | 1017.2 |
| 20260509034533 | 51 | 85 | 3.0 | 4.0 | 0.00 | 0.00 | 0.00 | 42 | 1017.1 |
| 20260509034015 | 52 | 75 | 2.0 | 4.0 | 0.00 | 0.00 | 0.00 | 41 | 1017.2 |
| 20260509033512 | 53 | 98 | 2.0 | 4.0 | 0.00 | 0.00 | 0.00 | 39 | 1017.0 |
| 20260509033034 | 54 | 85 | 3.0 | 4.0 | 0.00 | 0.00 | 0.00 | 36 | 1017.1 |
| 20260509032514 | 56 | 78 | 1.0 | 2.0 | 0.00 | 0.00 | 0.00 | 34 | 1017.0 |
| 20260509032013 | 57 | 84 | 1.0 | 2.0 | 0.00 | 0.00 | 0.00 | 32 | 1017.1 |
| 20260509031536 | 58 | 82 | 1.0 | 2.0 | 0.00 | 0.00 | 0.00 | 31 | 1017.0 |
| 20260509031015 | 59 | 75 | 1.0 | 2.0 | 0.00 | 0.00 | 0.00 | 29 | 1016.9 |
| 20260509030518 | 61 | 0 | 0.0 | 2.0 | 0.00 | 0.00 | 0.00 | 27 | 1016.8 |
| 20260509030037 | 62 | 133 | 0.0 | 2.0 | 0.00 | 0.00 | 0.00 | 25 | 1016.8 |
| 20260509025513 | 63 | 210 | 2.0 | 2.0 | 0.00 | 0.00 | 0.00 | 24 | 1016.7 |
| 20260509025015 | 63 | 246 | 1.0 | 2.0 | 0.00 | 0.00 | 0.00 | 24 | 1016.6 |
| 20260509024534 | 63 | 252 | 2.0 | 2.0 | 0.00 | 0.00 | 0.00 | 24 | 1016.6 |
| 20260509024014 | 63 | 253 | 2.0 | 3.0 | 0.00 | 0.00 | 0.00 | 25 | 1016.6 |
| 20260509023514 | 62 | 255 | 2.0 | 3.0 | 0.00 | 0.00 | 0.00 | 25 | 1016.5 |
| 20260509023032 | 62 | 252 | 2.0 | 3.0 | 0.00 | 0.00 | 0.00 | 26 | 1016.4 |
| 20260509022513 | 62 | 266 | 1.0 | 3.0 | 0.00 | 0.00 | 0.00 | 26 | 1016.5 |
| 20260509022017 | 62 | 264 | 2.0 | 4.0 | 0.00 | 0.00 | 0.00 | 26 | 1016.4 |
| 20260509021532 | 62 | 257 | 3.0 | 4.0 | 0.00 | 0.00 | 0.00 | 26 | 1016.5 |
| 20260509021017 | 63 | 259 | 3.0 | 5.0 | 0.00 | 0.00 | 0.00 | 26 | 1016.4 |
| 20260509020516 | 64 | 269 | 3.0 | 6.0 | 0.00 | 0.00 | 0.00 | 26 | 1016.4 |
| 20260509020034 | 65 | 270 | 4.0 | 8.0 | 0.00 | 0.00 | 0.00 | 25 | 1016.4 |
| 20260509015517 | 66 | 274 | 5.0 | 9.0 | 0.00 | 0.00 | 0.00 | 24 | 1016.2 |
| 20260509015016 | 67 | 269 | 6.0 | 11.0 | 0.00 | 0.00 | 0.00 | 23 | 1016.3 |
| 20260509014533 | 67 | 269 | 7.0 | 12.0 | 0.00 | 0.00 | 0.00 | 23 | 1016.3 |
| 20260509014013 | 68 | 269 | 7.0 | 12.0 | 0.00 | 0.00 | 0.00 | 23 | 1016.2 |
| 20260509013514 | 68 | 274 | 7.0 | 12.0 | 0.00 | 0.00 | 0.00 | 22 | 1016.3 |
| 20260509013045 | 68 | 292 | 8.0 | 12.0 | 0.00 | 0.00 | 0.00 | 22 | 1016.2 |
| 20260509012514 | 69 | 279 | 8.0 | 11.0 | 0.00 | 0.00 | 0.00 | 22 | 1016.2 |
| 20260509012015 | 69 | 281 | 6.0 | 12.0 | 0.00 | 0.00 | 0.00 | 23 | 1016.1 |
| 20260509011536 | 70 | 281 | 5.0 | 12.0 | 0.00 | 0.00 | 0.00 | 22 | 1016.1 |
| 20260509011013 | 70 | 271 | 7.0 | 12.0 | 0.00 | 0.00 | 0.00 | 22 | 1016.1 |
| 20260509010515 | 70 | 295 | 7.0 | 11.0 | 0.00 | 0.00 | 0.00 | 21 | 1016.0 |
| 20260509010032 | 70 | 294 | 5.0 | 12.0 | 0.00 | 0.00 | 0.00 | 20 | 1016.1 |
| 20260509005513 | 70 | 281 | 6.0 | 12.0 | 0.00 | 0.00 | 0.00 | 21 | 1016.1 |
| 20260509005018 | 71 | 296 | 9.0 | 17.0 | 0.00 | 0.00 | 0.00 | 19 | 1016.1 |
| 20260509004558 | 71 | 326 | 4.0 | 17.0 | 0.00 | 0.00 | 0.00 | 19 | 1016.0 |
| 20260509004015 | 71 | 304 | 8.0 | 17.0 | 0.00 | 0.00 | 0.00 | 18 | 1015.9 |
| 20260509003539 | 71 | 302 | 8.0 | 13.0 | 0.00 | 0.00 | 0.00 | 20 | 1015.9 |
| 20260509003041 | 71 | 305 | 6.0 | 13.0 | 0.00 | 0.00 | 0.00 | 20 | 1015.9 |
| 20260509002511 | 71 | 316 | 8.0 | 13.0 | 0.00 | 0.00 | 0.00 | 21 | 1015.8 |
| 20260509002014 | 71 | 290 | 8.0 | 13.0 | 0.00 | 0.00 | 0.00 | 20 | 1015.8 |
| 20260509001531 | 71 | 297 | 10.0 | 13.0 | 0.00 | 0.00 | 0.00 | 20 | 1015.7 |
| 20260509001013 | 71 | 288 | 3.0 | 11.0 | 0.00 | 0.00 | 0.00 | 20 | 1015.8 |
| 20260509000514 | 71 | 298 | 3.0 | 14.0 | 0.00 | 0.00 | 0.00 | 20 | 1015.7 |
| 20260509000032 | 71 | 313 | 6.0 | 16.0 | 0.00 | 0.00 | 0.00 | 19 | 1015.8 |
| 20260508235515 | 71 | 300 | 9.0 | 16.0 | 0.00 | 0.00 | 0.00 | 21 | 1015.8 |
| 20260508235013 | 70 | 300 | 9.0 | 16.0 | 0.00 | 0.00 | 0.00 | 22 | 1015.8 |
| 20260508234534 | 69 | 311 | 8.0 | 13.0 | 0.00 | 0.00 | 0.00 | 21 | 1015.9 |
| 20260508234014 | 69 | 336 | 7.0 | 15.0 | 0.00 | 0.00 | 0.00 | 20 | 1015.9 |
| 20260508233514 | 70 | 293 | 9.0 | 15.0 | 0.00 | 0.00 | 0.00 | 21 | 1015.9 |
| 20260508233032 | 70 | 299 | 8.0 | 16.0 | 0.00 | 0.00 | 0.00 | 20 | 1015.9 |
| 20260508232513 | 71 | 274 | 5.0 | 16.0 | 0.00 | 0.00 | 0.00 | 19 | 1015.9 |
| 20260508232013 | 72 | 306 | 10.0 | 16.0 | 0.00 | 0.00 | 0.00 | 19 | 1015.9 |
| 20260508231532 | 72 | 302 | 6.0 | 16.0 | 0.00 | 0.00 | 0.00 | 18 | 1015.9 |
| 20260508231013 | 71 | 271 | 6.0 | 15.0 | 0.00 | 0.00 | 0.00 | 18 | 1015.9 |
| 20260508230513 | 70 | 318 | 6.0 | 15.0 | 0.00 | 0.00 | 0.00 | 19 | 1016.0 |
| 20260508230049 | 70 | 282 | 9.0 | 14.0 | 0.00 | 0.00 | 0.00 | 20 | 1016.2 |
| 20260508225513 | 71 | 291 | 8.0 | 18.0 | 0.00 | 0.00 | 0.00 | 19 | 1016.1 |
| 20260508225013 | 71 | 282 | 11.0 | 18.0 | 0.00 | 0.00 | 0.00 | 19 | 1016.1 |
| 20260508224534 | 71 | 262 | 8.0 | 20.0 | 0.00 | 0.00 | 0.00 | 19 | 1016.1 |
| 20260508224013 | 71 | 304 | 12.0 | 20.0 | 0.00 | 0.00 | 0.00 | 19 | 1016.2 |
| 20260508223517 | 72 | 300 | 11.0 | 18.0 | 0.00 | 0.00 | 0.00 | 18 | 1016.1 |
| 20260508223030 | 72 | 311 | 11.0 | 18.0 | 0.00 | 0.00 | 0.00 | 18 | 1016.1 |
| 20260508222513 | 72 | 318 | 11.0 | 21.0 | 0.00 | 0.00 | 0.00 | 21 | 1016.3 |
| 20260508222017 | 71 | 291 | 12.0 | 21.0 | 0.00 | 0.00 | 0.00 | 19 | 1016.2 |
| 20260508221532 | 71 | 288 | 13.0 | 19.0 | 0.00 | 0.00 | 0.00 | 19 | 1016.3 |
| 20260508221015 | 71 | 283 | 3.0 | 16.0 | 0.00 | 0.00 | 0.00 | 19 | 1016.2 |
| 20260508220514 | 71 | 307 | 8.0 | 17.0 | 0.00 | 0.00 | 0.00 | 19 | 1016.4 |
| 20260508220034 | 71 | 304 | 8.0 | 17.0 | 0.00 | 0.00 | 0.00 | 20 | 1016.5 |
| 20260508215514 | 71 | 297 | 12.0 | 17.0 | 0.00 | 0.00 | 0.00 | 20 | 1016.6 |
| 20260508215017 | 71 | 285 | 6.0 | 16.0 | 0.00 | 0.00 | 0.00 | 21 | 1016.7 |
| 20260508214534 | 71 | 283 | 9.0 | 18.0 | 0.00 | 0.00 | 0.00 | 20 | 1016.8 |
| 20260508214016 | 71 | 295 | 12.0 | 19.0 | 0.00 | 0.00 | 0.00 | 20 | 1017.0 |
| 20260508213513 | 72 | 262 | 12.0 | 19.0 | 0.00 | 0.00 | 0.00 | 20 | 1017.0 |
| 20260508213034 | 71 | 287 | 9.0 | 19.0 | 0.00 | 0.00 | 0.00 | 21 | 1017.0 |
| 20260508212515 | 71 | 285 | 6.0 | 15.0 | 0.00 | 0.00 | 0.00 | 21 | 1017.0 |
| 20260508212014 | 71 | 285 | 6.0 | 17.0 | 0.00 | 0.00 | 0.00 | 20 | 1017.0 |
| 20260508211534 | 71 | 312 | 10.0 | 17.0 | 0.00 | 0.00 | 0.00 | 20 | 1017.0 |
| 20260508211015 | 71 | 323 | 9.0 | 18.0 | 0.00 | 0.00 | 0.00 | 21 | 1017.1 |
| 20260508210515 | 71 | 293 | 11.0 | 18.0 | 0.00 | 0.00 | 0.00 | 21 | 1017.2 |
| 20260508210039 | 71 | 289 | 9.0 | 18.0 | 0.00 | 0.00 | 0.00 | 20 | 1017.0 |
| 20260508205514 | 71 | 269 | 10.0 | 17.0 | 0.00 | 0.00 | 0.00 | 22 | 1017.2 |
| 20260508205014 | 70 | 291 | 5.0 | 19.0 | 0.00 | 0.00 | 0.00 | 21 | 1017.2 |
| 20260508204534 | 71 | 303 | 9.0 | 19.0 | 0.00 | 0.00 | 0.00 | 21 | 1017.4 |
| 20260508204011 | 70 | 283 | 8.0 | 19.0 | 0.00 | 0.00 | 0.00 | 22 | 1017.2 |
| 20260508203512 | 70 | 304 | 11.0 | 19.0 | 0.00 | 0.00 | 0.00 | 20 | 1017.5 |
| 20260508203035 | 69 | 306 | 7.0 | 22.0 | 0.00 | 0.00 | 0.00 | 21 | 1017.6 |
| 20260508202517 | 70 | 321 | 11.0 | 22.0 | 0.00 | 0.00 | 0.00 | 20 | 1017.6 |
| 20260508202014 | 70 | 281 | 10.0 | 19.0 | 0.00 | 0.00 | 0.00 | 22 | 1017.6 |
| 20260508201534 | 70 | 281 | 8.0 | 19.0 | 0.00 | 0.00 | 0.00 | 21 | 1017.8 |
| 20260508201013 | 70 | 301 | 11.0 | 19.0 | 0.00 | 0.00 | 0.00 | 23 | 1017.7 |
| 20260508200518 | 70 | 284 | 13.0 | 19.0 | 0.00 | 0.00 | 0.00 | 22 | 1017.7 |
| 20260508200040 | 70 | 252 | 11.0 | 19.0 | 0.00 | 0.00 | 0.00 | 22 | 1017.7 |
| 20260508195513 | 69 | 293 | 11.0 | 21.0 | 0.00 | 0.00 | 0.00 | 23 | 1017.6 |
| 20260508195018 | 69 | 293 | 14.0 | 22.0 | 0.00 | 0.00 | 0.00 | 22 | 1017.5 |
| 20260508194531 | 68 | 274 | 13.0 | 22.0 | 0.00 | 0.00 | 0.00 | 22 | 1017.6 |
| 20260508194013 | 69 | 265 | 13.0 | 26.0 | 0.00 | 0.00 | 0.00 | 21 | 1017.7 |
| 20260508193514 | 69 | 283 | 13.0 | 26.0 | 0.00 | 0.00 | 0.00 | 22 | 1017.7 |
| 20260508193030 | 69 | 292 | 15.0 | 26.0 | 0.00 | 0.00 | 0.00 | 21 | 1017.7 |
| 20260508192514 | 69 | 276 | 10.0 | 20.0 | 0.00 | 0.00 | 0.00 | 22 | 1017.7 |
| 20260508192014 | 70 | 293 | 12.0 | 25.0 | 0.00 | 0.00 | 0.00 | 22 | 1017.7 |
| 20260508191534 | 69 | 264 | 14.0 | 25.0 | 0.00 | 0.00 | 0.00 | 23 | 1017.7 |
| 20260508191014 | 69 | 294 | 13.0 | 23.0 | 0.00 | 0.00 | 0.00 | 23 | 1017.7 |
| 20260508190514 | 69 | 293 | 14.0 | 23.0 | 0.00 | 0.00 | 0.00 | 22 | 1017.9 |
| 20260508190044 | 69 | 291 | 16.0 | 23.0 | 0.00 | 0.00 | 0.00 | 23 | 1017.9 |
| 20260508185513 | 68 | 283 | 15.0 | 24.0 | 0.00 | 0.00 | 0.00 | 23 | 1017.9 |
| 20260508185015 | 68 | 303 | 17.0 | 24.0 | 0.00 | 0.00 | 0.00 | 22 | 1018.0 |
| 20260508184553 | 69 | 259 | 17.0 | 24.0 | 0.00 | 0.00 | 0.00 | 22 | 1017.9 |
| 20260508184013 | 68 | 292 | 15.0 | 27.0 | 0.00 | 0.00 | 0.00 | 23 | 1018.0 |
| 20260508183514 | 68 | 281 | 18.0 | 27.0 | 0.00 | 0.00 | 0.00 | 23 | 1018.0 |
| 20260508183033 | 67 | 285 | 19.0 | 27.0 | 0.00 | 0.00 | 0.00 | 23 | 1018.1 |
| 20260508182514 | 67 | 276 | 13.0 | 26.0 | 0.00 | 0.00 | 0.00 | 24 | 1018.1 |
| 20260508182015 | 67 | 267 | 17.0 | 26.0 | 0.00 | 0.00 | 0.00 | 23 | 1017.9 |
| 20260508181547 | 68 | 295 | 17.0 | 25.0 | 0.00 | 0.00 | 0.00 | 23 | 1018.0 |
| 20260508181014 | 67 | 282 | 14.0 | 21.0 | 0.00 | 0.00 | 0.00 | 22 | 1018.2 |
| 20260508180515 | 67 | 282 | 14.0 | 21.0 | 0.00 | 0.00 | 0.00 | 24 | 1018.3 |
| 20260508180033 | 67 | 281 | 11.0 | 19.0 | 0.00 | 0.00 | 0.00 | 24 | 1018.3 |
| 20260508175514 | 68 | 277 | 13.0 | 19.0 | 0.00 | 0.00 | 0.00 | 23 | 1018.3 |
| 20260508175014 | 68 | 290 | 12.0 | 19.0 | 0.00 | 0.00 | 0.00 | 23 | 1018.5 |
| 20260508174535 | 68 | 287 | 12.0 | 24.0 | 0.00 | 0.00 | 0.00 | 22 | 1018.3 |
| 20260508174013 | 67 | 275 | 14.0 | 24.0 | 0.00 | 0.00 | 0.00 | 23 | 1018.4 |
| 20260508173514 | 67 | 281 | 12.0 | 20.0 | 0.00 | 0.00 | 0.00 | 23 | 1018.3 |
| 20260508173033 | 67 | 244 | 10.0 | 20.0 | 0.00 | 0.00 | 0.00 | 23 | 1018.5 |
| 20260508172515 | 67 | 302 | 15.0 | 20.0 | 0.00 | 0.00 | 0.00 | 22 | 1018.7 |
| 20260508172016 | 66 | 276 | 9.0 | 19.0 | 0.00 | 0.00 | 0.00 | 24 | 1018.7 |
| 20260508171533 | 66 | 264 | 11.0 | 19.0 | 0.00 | 0.00 | 0.00 | 25 | 1018.7 |
| 20260508171013 | 65 | 300 | 12.0 | 19.0 | 0.00 | 0.00 | 0.00 | 26 | 1018.7 |
| 20260508170515 | 65 | 302 | 10.0 | 19.0 | 0.00 | 0.00 | 0.00 | 25 | 1018.5 |
| 20260508170038 | 65 | 274 | 11.0 | 18.0 | 0.00 | 0.00 | 0.00 | 25 | 1018.7 |
| 20260508165514 | 66 | 262 | 7.0 | 18.0 | 0.00 | 0.00 | 0.00 | 27 | 1018.8 |
| 20260508165014 | 65 | 253 | 9.0 | 14.0 | 0.00 | 0.00 | 0.00 | 27 | 1018.7 |
| 20260508164531 | 65 | 260 | 7.0 | 12.0 | 0.00 | 0.00 | 0.00 | 28 | 1018.8 |
| 20260508164014 | 65 | 271 | 6.0 | 12.0 | 0.00 | 0.00 | 0.00 | 28 | 1018.8 |
| 20260508163514 | 64 | 244 | 6.0 | 11.0 | 0.00 | 0.00 | 0.00 | 29 | 1018.8 |
| 20260508163033 | 64 | 288 | 5.0 | 8.0 | 0.00 | 0.00 | 0.00 | 28 | 1018.9 |
| 20260508162514 | 64 | 295 | 5.0 | 8.0 | 0.00 | 0.00 | 0.00 | 27 | 1018.7 |
| 20260508162018 | 64 | 255 | 4.0 | 9.0 | 0.00 | 0.00 | 0.00 | 28 | 1018.8 |
| 20260508161535 | 64 | 263 | 4.0 | 9.0 | 0.00 | 0.00 | 0.00 | 28 | 1018.7 |
| 20260508161015 | 64 | 281 | 4.0 | 8.0 | 0.00 | 0.00 | 0.00 | 27 | 1018.8 |
| 20260508160515 | 64 | 263 | 3.0 | 7.0 | 0.00 | 0.00 | 0.00 | 27 | 1018.7 |
| 20260508160033 | 64 | 266 | 3.0 | 6.0 | 0.00 | 0.00 | 0.00 | 29 | 1018.7 |
| 20260508155512 | 64 | 226 | 1.0 | 5.0 | 0.00 | 0.00 | 0.00 | 30 | 1018.8 |
| 20260508155014 | 63 | 302 | 2.0 | 5.0 | 0.00 | 0.00 | 0.00 | 29 | 1018.8 |
| 20260508154533 | 63 | 239 | 3.0 | 5.0 | 0.00 | 0.00 | 0.00 | 30 | 1018.7 |
| 20260508154013 | 63 | 319 | 0.0 | 4.0 | 0.00 | 0.00 | 0.00 | 31 | 1018.8 |
| 20260508153514 | 62 | 271 | 1.0 | 4.0 | 0.00 | 0.00 | 0.00 | 30 | 1018.8 |
| 20260508153034 | 62 | 274 | 2.0 | 3.0 | 0.00 | 0.00 | 0.00 | 29 | 1018.8 |
| 20260508152512 | 63 | 281 | 1.0 | 3.0 | 0.00 | 0.00 | 0.00 | 28 | 1018.8 |
| 20260508152016 | 62 | 296 | 1.0 | 3.0 | 0.00 | 0.00 | 0.00 | 29 | 1018.8 |
| 20260508151533 | 63 | 159 | 1.0 | 4.0 | 0.00 | 0.00 | 0.00 | 30 | 1018.8 |
| 20260508151012 | 61 | 0 | 0.0 | 4.0 | 0.00 | 0.00 | 0.00 | 31 | 1018.8 |
| 20260508150520 | 60 | 126 | 2.0 | 4.0 | 0.00 | 0.00 | 0.00 | 37 | 1018.8 |
| 20260508150035 | 59 | 155 | 1.0 | 5.0 | 0.00 | 0.00 | 0.00 | 37 | 1018.9 |
| 20260508145515 | 58 | 98 | 2.0 | 6.0 | 0.00 | 0.00 | 0.00 | 38 | 1018.9 |